FW0976 Weather Reports


time (UTC)temp
C
wind
direction
speed
KPH
gust
KPH
rain 1hr
cm
rain 24hr
cm
rain mn
cm
humidity
%
barometer
mb
20260510091243 17 87 0.0 3.2 0.89 0.89 0.89 95 1012.2
20260510090659 17 52 0.0 3.2 0.76 0.76 0.79 95 1013.5
20260510090240 16 61 0.0 3.2 0.71 0.71 0.71 94 1013.5
20260510085739 16 64 0.0 3.2 0.58 0.58 0.58 94 1013.4
20260510085158 17 62 1.6 17.7 0.51 0.51 0.51 93 1013.7
20260510084738 17 85 1.6 17.7 0.41 0.41 0.41 92 1014.3
20260510084239 18 68 1.6 9.7 0.30 0.30 0.30 92 1014.2
20260510083734 18 337 1.6 14.5 0.23 0.23 0.25 91 1014.4
20260510083235 19 0 1.6 14.5 0.08 0.08 0.10 88 1014.1
20260510082734 20 10 0.0 3.2 0.03 0.03 0.03 87 1012.8
20260510082152 20 28 0.0 3.2 0.00 0.00 0.00 86 1012.8
20260510082145 25 228 0.0 3.2 0.00 0.00 0.00 49 1020.2
20260510081851 14 173 0.0 0.0 0.00 0.00 0.00 72 1019.0
20260510081709 20 279 0.0 3.2 0.00 0.00 0.00 85 1012.4
20260510081211 20 30 0.0 3.2 0.00 0.00 0.00 86 1011.9
20260510080713 20 50 0.0 3.2 0.00 0.00 0.00 87 1011.6
20260510080216 20 11 0.0 14.5 0.00 0.00 0.00 88 1011.3
20260510075714 20 62 1.6 14.5 0.00 0.00 0.00 89 1011.2
20260510075215 20 34 1.6 6.4 0.00 0.00 0.00 91 1011.3
20260510074713 20 12 1.6 8.0 0.00 0.00 0.00 91 1011.6
20260510074206 20 19 1.6 14.5 0.00 0.00 0.00 91 1011.7
20260510073704 20 19 1.6 14.5 0.00 0.00 0.00 92 1011.4
20260510073203 21 54 0.0 3.2 0.00 0.00 0.00 93 1010.9
20260510072657 21 73 0.0 3.2 0.00 0.00 0.00 94 1010.3
20260510072159 21 73 0.0 3.2 0.00 0.00 0.00 94 1009.7
20260510071700 22 64 0.0 3.2 0.00 0.00 0.00 94 1009.5
20260510071204 22 94 0.0 3.2 0.00 0.00 0.00 94 1009.7
20260510070707 22 96 0.0 1.6 0.00 0.00 0.00 94 1010.0
20260510070209 22 53 0.0 1.6 0.00 0.00 0.00 94 1010.2
20260510065709 22 129 0.0 3.2 0.00 0.00 0.00 93 1010.2
20260510065217 22 100 0.0 3.2 0.00 0.00 0.00 93 1010.1
20260510064718 22 91 0.0 6.4 0.00 0.00 0.00 92 1009.8
20260510064220 22 84 0.0 6.4 0.00 0.00 0.00 92 1011.1
20260510063718 22 29 0.0 3.2 0.00 0.00 0.00 92 1011.6
20260510062705 22 19 0.0 3.2 0.00 0.00 0.00 92 1011.9
20260510062211 22 16 0.0 3.2 0.00 0.00 0.00 93 1011.9
20260510061711 22 348 0.0 3.2 0.00 0.00 0.00 93 1012.1
20260510061212 22 319 0.0 1.6 0.00 0.00 0.00 93 1012.1
20260510060235 22 55 0.0 3.2 0.00 0.00 0.00 93 1011.9
20260510055650 22 341 0.0 3.2 0.00 0.00 0.00 93 1012.1
20260510055154 22 340 0.0 3.2 0.00 0.00 0.00 93 1011.9
20260510054657 22 32 0.0 3.2 0.00 0.00 0.00 93 1011.6
20260510052652 22 118 0.0 1.6 0.00 0.00 0.00 92 1009.7
20260510052156 22 130 0.0 1.6 0.00 0.00 0.00 92 1009.5
20260510051658 22 128 0.0 1.6 0.00 0.00 0.00 92 1009.3
20260510051202 22 126 0.0 1.6 0.00 0.00 0.00 92 1009.1
20260510050705 22 126 0.0 1.6 0.00 0.00 0.00 91 1008.9
20260510050209 22 142 0.0 1.6 0.00 0.00 0.00 91 1008.9
20260510045708 22 133 0.0 1.6 0.00 0.00 0.00 91 1008.9
20260510045210 22 126 0.0 1.6 0.00 0.00 0.00 91 1008.8
20260510044156 22 123 0.0 1.6 0.00 0.00 0.00 89 1008.7
20260510043656 22 128 0.0 1.6 0.00 0.00 0.00 88 1008.4
20260510043158 22 125 0.0 1.6 0.00 0.00 0.00 88 1008.4
20260510042655 22 106 0.0 1.6 0.00 0.00 0.00 87 1008.3
20260510042200 21 126 0.0 1.6 0.00 0.00 0.00 87 1008.4
20260510041705 21 123 0.0 1.6 0.00 0.00 0.00 86 1008.4
20260510040650 21 122 0.0 1.6 0.00 0.00 0.00 86 1008.3
20260510040156 21 120 0.0 1.6 0.00 0.00 0.00 85 1008.2
20260510035148 22 119 0.0 0.0 0.00 0.00 0.00 84 1008.5
20260510034141 22 119 0.0 0.0 0.00 0.00 0.00 83 1008.6
20260510033644 22 119 0.0 1.6 0.00 0.00 0.00 83 1008.6
20260510032203 22 119 0.0 1.6 0.00 0.00 0.00 82 1008.6
20260510031704 22 119 0.0 1.6 0.00 0.00 0.00 82 1008.6
20260510031207 22 119 0.0 1.6 0.00 0.00 0.00 82 1008.5
20260510030712 22 119 0.0 0.0 0.00 0.00 0.00 82 1008.5
20260510030218 22 112 0.0 1.6 0.00 0.00 0.00 82 1008.4
20260510025633 22 111 0.0 1.6 0.00 0.00 0.00 82 1008.5
20260510025136 22 105 0.0 1.6 0.00 0.00 0.00 81 1008.5
20260510024639 22 105 0.0 1.6 0.00 0.00 0.00 81 1008.5
20260510024143 22 104 0.0 1.6 0.00 0.00 0.00 80 1008.5
20260510023136 23 103 0.0 1.6 0.00 0.00 0.00 79 1008.7
20260510022718 23 103 0.0 1.6 0.00 0.00 0.00 79 1008.7
20260510022140 23 103 0.0 1.6 0.00 0.00 0.00 79 1008.6
20260510021642 23 103 0.0 1.6 0.00 0.00 0.00 78 1008.6
20260510021145 23 103 0.0 1.6 0.00 0.00 0.00 78 1008.4
20260510020642 23 103 0.0 0.0 0.00 0.00 0.00 78 1008.4
20260510020145 23 103 0.0 0.0 0.00 0.00 0.00 78 1008.3
20260510015209 23 103 0.0 0.0 0.00 0.00 0.00 77 1008.3
20260510014626 24 103 0.0 0.0 0.00 0.00 0.00 76 1008.2
20260510013654 24 103 0.0 1.6 0.00 0.00 0.00 75 1008.1
20260510012201 25 103 0.0 1.6 0.00 0.00 0.00 74 1008.1
20260510011702 25 103 0.0 1.6 0.00 0.00 0.00 73 1007.9
20260510011203 25 103 0.0 1.6 0.00 0.00 0.00 72 1007.8
20260510010702 25 103 0.0 0.0 0.00 0.00 0.00 72 1007.8
20260510010201 26 103 0.0 1.6 0.00 0.00 0.00 71 1007.7
20260510005701 26 107 0.0 1.6 0.00 0.00 0.00 69 1007.7
20260510005123 26 107 0.0 1.6 0.00 0.00 0.00 69 1007.6
20260510004622 26 107 0.0 1.6 0.00 0.00 0.00 69 1007.6
20260510004121 26 107 0.0 1.6 0.00 0.00 0.00 68 1007.6
20260510003705 27 106 0.0 1.6 0.00 0.00 0.00 68 1007.5
20260510003208 27 109 0.0 1.6 0.00 0.00 0.00 67 1007.5
20260510002629 27 109 0.0 1.6 0.00 0.00 0.00 67 1007.4
20260510002131 27 109 0.0 1.6 0.00 0.00 0.00 66 1007.5
20260510001632 27 103 0.0 1.6 0.00 0.00 0.00 66 1007.5
20260510001136 27 100 0.0 1.6 0.00 0.00 0.00 66 1007.5
20260510000123 27 130 0.0 1.6 0.00 0.00 0.00 64 1007.6
20260509235146 27 139 0.0 1.6 0.00 0.00 0.00 64 1007.7
20260509234648 27 125 0.0 1.6 0.00 0.00 0.00 65 1007.7
20260509234150 27 120 0.0 1.6 0.00 0.00 0.00 65 1007.7
20260509233651 28 118 0.0 1.6 0.00 0.00 0.00 65 1007.8
20260509233151 28 107 0.0 1.6 0.00 0.00 0.00 65 1007.8
20260509232649 28 126 0.0 1.6 0.00 0.00 0.00 64 1007.8
20260509232146 28 170 0.0 1.6 0.00 0.00 0.00 64 1007.8
20260509231643 28 117 0.0 1.6 0.00 0.00 0.00 64 1007.8
20260509231140 28 111 0.0 1.6 0.00 0.00 0.00 64 1007.7
20260509230125 28 131 0.0 1.6 0.00 0.00 0.00 63 1007.7
20260509225618 28 119 0.0 1.6 0.00 0.00 0.00 64 1007.8
20260509225124 28 121 0.0 1.6 0.00 0.00 0.00 64 1007.8
20260509224619 28 118 0.0 1.6 0.00 0.00 0.00 64 1007.7
20260509224115 29 111 0.0 1.6 0.00 0.00 0.00 64 1007.7
20260509223616 28 143 0.0 1.6 0.00 0.00 0.00 65 1007.7
20260509223119 28 101 0.0 1.6 0.00 0.00 0.00 65 1007.7
20260509222619 28 121 0.0 1.6 0.00 0.00 0.00 66 1007.6
20260509222117 28 110 0.0 1.6 0.00 0.00 0.00 64 1007.6
20260509221615 28 136 0.0 3.2 0.00 0.00 0.00 66 1007.6
20260509221113 29 127 0.0 3.2 0.00 0.00 0.00 64 1007.5
20260509220611 29 82 0.0 1.6 0.00 0.00 0.00 64 1007.5
20260509220110 29 140 0.0 1.6 0.00 0.00 0.00 65 1007.6
20260509215613 28 122 0.0 9.7 0.00 0.00 0.00 65 1007.5
20260509215114 29 56 0.0 9.7 0.00 0.00 0.00 65 1007.6
20260509214613 29 62 0.0 8.0 0.00 0.00 0.00 63 1007.6
20260509214111 29 126 0.0 8.0 0.00 0.00 0.00 63 1007.6
20260509213613 29 145 0.0 3.2 0.00 0.00 0.00 62 1007.7
20260509213113 29 115 0.0 1.6 0.00 0.00 0.00 62 1007.7
20260509212617 29 104 0.0 1.6 0.00 0.00 0.00 64 1007.8
20260509212114 29 115 0.0 1.6 0.00 0.00 0.00 64 1007.9
20260509211615 29 124 0.0 3.2 0.00 0.00 0.00 64 1008.0
20260509210124 29 117 0.0 1.6 0.00 0.00 0.00 66 1008.2
20260509205105 29 104 0.0 1.6 0.00 0.00 0.00 68 1008.3
20260509204607 29 119 0.0 3.2 0.00 0.00 0.00 66 1008.3
20260509204109 30 109 0.0 3.2 0.00 0.00 0.00 66 1008.4
20260509203611 29 96 0.0 1.6 0.00 0.00 0.00 68 1008.4
20260509203116 29 55 0.0 3.2 0.00 0.00 0.00 65 1008.4
20260509202615 30 102 0.0 3.2 0.00 0.00 0.00 65 1008.4
20260509202116 30 104 0.0 3.2 0.00 0.00 0.00 64 1008.4
20260509201614 30 58 0.0 1.6 0.00 0.00 0.00 66 1008.5
20260509201112 29 110 0.0 3.2 0.00 0.00 0.00 67 1008.5
20260509200612 30 136 0.0 3.2 0.00 0.00 0.00 66 1008.6
20260509200111 30 52 0.0 3.2 0.00 0.00 0.00 66 1008.6
20260509195058 30 63 0.0 4.8 0.00 0.00 0.00 63 1008.7
20260509194641 30 61 0.0 3.2 0.00 0.00 0.00 66 1008.8
20260509194141 30 67 0.0 1.6 0.00 0.00 0.00 67 1008.8
20260509193641 30 111 0.0 1.6 0.00 0.00 0.00 68 1008.9
20260509193059 30 56 0.0 1.6 0.00 0.00 0.00 66 1008.9
20260509192559 30 77 0.0 1.6 0.00 0.00 0.00 65 1008.9
20260509192142 30 55 0.0 3.2 0.00 0.00 0.00 67 1008.9
20260509191120 30 64 0.0 1.6 0.00 0.00 0.00 67 1009.1
20260509190622 30 89 0.0 1.6 0.00 0.00 0.00 65 1009.1
20260509190122 30 330 0.0 1.6 0.00 0.00 0.00 68 1009.1
20260509185622 30 55 0.0 1.6 0.00 0.00 0.00 67 1009.2
20260509185114 30 90 0.0 1.6 0.00 0.00 0.00 68 1009.2
20260509184615 30 61 0.0 1.6 0.00 0.00 0.00 69 1009.2
20260509184116 29 66 0.0 1.6 0.00 0.00 0.00 69 1009.2
20260509183618 30 58 0.0 3.2 0.00 0.00 0.00 68 1009.4
20260509182601 29 64 0.0 1.6 0.00 0.00 0.00 72 1009.5
20260509181632 30 56 0.0 3.2 0.00 0.00 0.00 69 1009.4
20260509181136 29 53 0.0 3.2 0.00 0.00 0.00 68 1009.5
20260509180639 29 21 0.0 3.2 0.00 0.00 0.00 72 1009.5
20260509180100 29 108 0.0 1.6 0.00 0.00 0.00 69 1009.6
20260509175600 29 49 0.0 3.2 0.00 0.00 0.00 71 1009.6
20260509175058 29 63 0.0 3.2 0.00 0.00 0.00 72 1009.7
20260509174639 29 63 0.0 1.6 0.00 0.00 0.00 71 1009.7
20260509173620 28 121 0.0 1.6 0.00 0.00 0.00 72 1009.8
20260509173118 28 56 0.0 3.2 0.00 0.00 0.00 72 1009.9
20260509172616 29 76 0.0 3.2 0.00 0.00 0.00 68 1009.9
20260509172112 29 59 0.0 1.6 0.00 0.00 0.00 72 1009.9
20260509171610 28 79 0.0 3.2 0.00 0.00 0.00 72 1009.9
20260509170628 29 63 0.0 3.2 0.00 0.00 0.00 71 1010.0
20260509170127 29 71 0.0 3.2 0.00 0.00 0.00 69 1010.0
20260509165629 29 58 0.0 3.2 0.00 0.00 0.00 71 1010.0
20260509165130 29 26 0.0 3.2 0.00 0.00 0.00 71 1010.1
20260509164112 28 351 0.0 1.6 0.00 0.00 0.00 73 1010.2
20260509163614 28 60 0.0 3.2 0.00 0.00 0.00 75 1010.2
20260509163114 27 46 0.0 3.2 0.00 0.00 0.00 74 1010.2
20260509162610 27 24 0.0 3.2 0.00 0.00 0.00 76 1010.1
20260509161554 26 59 0.0 1.6 0.00 0.00 0.00 79 1010.1
20260509161055 26 339 0.0 3.2 0.00 0.00 0.00 79 1010.1
20260509160556 26 311 0.0 3.2 0.00 0.00 0.00 78 1010.1
20260509160056 26 27 0.0 1.6 0.00 0.00 0.00 79 1010.1
20260509155121 26 90 0.0 1.6 0.00 0.00 0.00 81 1010.0
20260509154559 25 104 0.0 1.6 0.00 0.00 0.00 82 1009.9
20260509154059 25 343 0.0 1.6 0.00 0.00 0.00 83 1010.0
20260509153600 24 0 0.0 6.4 0.00 0.00 0.00 82 1010.1
20260509153059 24 22 0.0 6.4 0.00 0.00 0.00 83 1010.0
20260509152600 24 76 0.0 3.2 0.00 0.00 0.00 82 1010.0
20260509152058 25 68 0.0 1.6 0.00 0.00 0.00 84 1010.0
20260509151559 24 77 0.0 1.6 0.00 0.00 0.00 85 1010.1
20260509151104 24 37 0.0 1.6 0.00 0.03 0.00 87 1010.1
20260509150606 23 80 0.0 3.2 0.00 0.05 0.00 86 1010.1
20260509150110 23 32 0.0 3.2 0.00 0.05 0.00 86 1010.1
20260509145609 23 76 0.0 1.6 0.00 0.05 0.00 87 1010.1
20260509145110 23 78 0.0 1.6 0.00 0.05 0.00 88 1010.1
20260509144612 23 0 0.0 1.6 0.00 0.05 0.00 89 1010.1
20260509144112 23 5 0.0 1.6 0.00 0.05 0.00 89 1009.9
20260509143607 23 344 0.0 1.6 0.00 0.05 0.00 89 1009.9
20260509143107 23 327 0.0 3.2 0.00 0.05 0.00 91 1010.0
20260509142607 23 12 0.0 6.4 0.00 0.05 0.00 93 1009.9
20260509142104 22 14 0.0 6.4 0.00 0.05 0.00 94 1009.8
20260509141604 22 326 0.0 1.6 0.00 0.05 0.00 95 1009.9
20260509141105 22 336 0.0 3.2 0.00 0.05 0.00 95 1009.9
20260509140609 22 23 0.0 3.2 0.00 0.05 0.00 96 1009.8
20260509140112 22 51 0.0 1.6 0.00 0.05 0.00 97 1009.8
20260509135104 21 70 0.0 1.6 0.00 0.05 0.00 98 1009.8
20260509134602 21 134 0.0 1.6 0.00 0.05 0.00 98 1009.7
20260509134106 21 134 0.0 1.6 0.00 0.05 0.00 98 1009.8
20260509133606 21 139 0.0 1.6 0.00 0.05 0.00 99 1009.7
20260509133111 21 139 0.0 1.6 0.00 0.05 0.00 98 1009.6
20260509132609 21 140 0.0 0.0 0.00 0.05 0.00 98 1009.6
20260509132112 21 140 0.0 1.6 0.00 0.05 0.00 98 1009.7
20260509131604 20 140 0.0 1.6 0.00 0.05 0.00 98 1009.7
20260509131106 20 140 0.0 1.6 0.00 0.05 0.00 98 1009.7
20260509130602 20 141 0.0 1.6 0.00 0.05 0.00 98 1009.6
20260509130106 20 141 0.0 1.6 0.00 0.08 0.00 99 1009.6
20260509125611 20 138 0.0 1.6 0.00 0.08 0.00 99 1009.6
20260509125114 20 140 0.0 1.6 0.00 0.10 0.00 98 1009.7
20260509124612 20 140 0.0 1.6 0.00 0.10 0.00 98 1009.6
20260509124112 20 140 0.0 1.6 0.00 0.10 0.00 98 1009.6
20260509122535 20 140 0.0 1.6 0.00 0.10 0.00 98 1009.5
20260509122036 19 140 0.0 1.6 0.00 0.10 0.00 98 1009.5
20260509121536 19 140 0.0 1.6 0.00 0.10 0.00 98 1009.7
20260509121041 19 141 0.0 0.0 0.00 0.10 0.00 98 1009.7
20260509120109 19 143 0.0 1.6 0.00 0.13 0.00 98 1009.4
20260509115608 19 143 0.0 1.6 0.00 0.15 0.00 98 1009.3
20260509115108 19 143 0.0 1.6 0.00 0.15 0.00 98 1009.3
20260509114604 19 143 0.0 0.0 0.00 0.15 0.00 98 1009.3
20260509114103 19 143 0.0 1.6 0.00 0.15 0.00 98 1009.3
20260509113602 19 143 0.0 1.6 0.00 0.15 0.00 98 1009.2
20260509113017 19 143 0.0 1.6 0.00 0.15 0.00 97 1009.1
20260509112604 19 143 0.0 1.6 0.00 0.15 0.00 97 1008.8
20260509112022 19 143 0.0 1.6 0.00 0.15 0.00 97 1008.8
20260509111525 19 143 0.0 1.6 0.00 0.15 0.00 97 1008.6
20260509111031 19 143 0.0 1.6 0.00 0.15 0.00 97 1008.5
20260509110024 19 143 0.0 1.6 0.00 0.15 0.00 97 1008.5
20260509105527 19 143 0.0 1.6 0.00 0.15 0.00 97 1008.5
20260509105035 19 143 0.0 1.6 0.00 0.15 0.00 97 1008.5
20260509104538 19 143 0.0 1.6 0.00 0.15 0.00 97 1008.4
20260509104043 19 143 0.0 1.6 0.00 0.15 0.00 97 1008.5
20260509103033 19 143 0.0 1.6 0.00 0.23 0.00 97 1008.3
20260509102538 19 143 0.0 1.6 0.00 0.48 0.00 97 1008.3
20260509102046 19 143 0.0 1.6 0.00 0.53 0.00 97 1008.1
20260509101548 19 143 0.0 1.6 0.00 0.53 0.00 97 1008.1
20260509101052 19 143 0.0 1.6 0.00 0.53 0.00 97 1007.9
20260509100037 19 143 0.0 0.0 0.00 0.53 0.00 97 1007.8
20260509095541 19 142 0.0 1.6 0.00 0.53 0.00 97 1007.6
20260509095043 19 142 0.0 1.6 0.00 0.53 0.00 97 1007.6
20260509094547 19 142 0.0 1.6 0.00 0.53 0.00 97 1007.6
20260509094051 19 163 0.0 1.6 0.00 0.53 0.00 97 1007.4
20260509093034 20 165 0.0 1.6 0.00 0.53 0.00 97 1007.5
20260509092022 20 136 0.0 1.6 0.00 0.53 0.00 96 1007.6
20260509091519 20 100 0.0 1.6 0.00 0.53 0.00 96 1007.7